,

(GMT )
Prerov

Weather History for LKPO - November, 2012

Change the Weather History Date:

Saturday, November 3, 2012

  Actual Average Record
Temperature  
Mean Temperature 45 °F -  
Max Temperature 51 °F - - ()
Min Temperature 39 °F - - ()
Degree Days  
Heating Degree Days 20    
Moisture  
Dew Point 40 °F    
Average Humidity 84    
Maximum Humidity 93    
Minimum Humidity 71    
Precipitation  
Precipitation 0.00 in - - ()
Sea Level Pressure  
Sea Level Pressure 29.80 in    
Wind  
Wind Speed 7 mph ()    
Max Wind Speed 15 mph    
Max Gust Speed -    
Visibility 6.2 miles    
Events      
T = Trace of Precipitation, MM = Missing Value Source: Averaged Metar Reports

Daily Weather History Graph

Daily Weather History Graph

Search for Another Location

Airport or City:

Trip Planner

Search our weather history database for the weather conditions in past years. The results will help you decide how hot, cold, wet, or windy it might be!

Date:

Astronomy

Nov. 03, 2012 Rise Set
Actual Time 6:42 AM CET 4:24 PM CET
Civil Twilight 6:08 AM CET 4:58 PM CET
Nautical Twilight 5:30 AM CET 5:36 PM CET
Astronomical Twilight 4:53 AM CET 6:13 PM CET
Moon 7:39 PM CET (11/3) 10:44 AM CET (11/3)
Length of Visible Light 10h 50m
Length of Day
9h 42m
Waning Gibbous, 82% of the Moon is Illuminated
Nov 3
Waning Gibbous
Nov 7
Last Quarter
Nov 13
New
Nov 20
First Quarter
Nov 28
Full

Hourly Weather History & Observations

Time (CET) Temp. Windchill Dew Point Humidity Pressure Visibility Wind Dir Wind Speed Gust Speed Precip Events Conditions
12:00 AM 41.0 °F 36.4 °F 37.4 °F 87% 29.77 in - South 6.9 mph - N/A   Clear
1:00 AM 41.0 °F - 37.4 °F 87% 29.77 in - Variable 2.3 mph - N/A   Clear
2:00 AM 41.0 °F 37.1 °F 37.4 °F 87% 29.77 in - South 5.8 mph - N/A   Clear
3:00 AM 41.0 °F 34.3 °F 37.4 °F 87% 29.77 in - South 11.5 mph - N/A   Clear
4:00 AM 41.0 °F 33.1 °F 37.4 °F 87% 29.80 in - South 15.0 mph - N/A   Clear
5:00 AM 42.8 °F 36.2 °F 37.4 °F 81% 29.80 in - South 12.7 mph - N/A   Clear
6:00 AM 42.8 °F 36.2 °F 39.2 °F 87% 29.80 in - SSW 12.7 mph - N/A   Clear
7:00 AM 42.8 °F 36.2 °F 39.2 °F 87% 29.80 in - South 12.7 mph - N/A   Clear
8:00 AM 44.6 °F 38.4 °F 39.2 °F 81% 29.86 in - SSW 12.7 mph - N/A   Clear
9:00 AM 44.6 °F 40.2 °F 39.2 °F 81% 29.83 in 6.2 mi South 8.1 mph - N/A   Mostly Cloudy
10:00 AM 46.4 °F 41.9 °F 41.0 °F 81% 29.83 in - South 9.2 mph - N/A   Clear
11:00 AM 50.0 °F - 41.0 °F 71% 29.83 in - SSW 12.7 mph - N/A   Clear
12:00 PM 51.8 °F - 42.8 °F 71% 29.83 in - SSW 10.4 mph - N/A   Clear
1:00 PM 48.2 °F - 41.0 °F 76% 29.83 in 6.2 mi South 13.8 mph - N/A   Mostly Cloudy
2:00 PM 48.2 °F - 42.8 °F 82% 29.80 in - South 8.1 mph - N/A   Clear
3:00 PM 48.2 °F - 42.8 °F 82% 29.80 in - South 10.4 mph - N/A   Clear
4:00 PM 48.2 °F - 42.8 °F 82% 29.80 in - SSW 9.2 mph - N/A   Clear
5:00 PM 48.2 °F - 42.8 °F 82% 29.80 in - SSW 5.8 mph - N/A   Clear
6:00 PM 48.2 °F - 42.8 °F 82% 29.80 in - South 4.6 mph - N/A   Clear
7:00 PM 46.4 °F 43.5 °F 42.8 °F 87% 29.80 in - South 5.8 mph - N/A   Clear
8:00 PM 41.0 °F 39.0 °F 39.2 °F 93% 29.80 in - East 3.5 mph - N/A   Clear
9:00 PM 39.2 °F - 37.4 °F 93% 29.80 in - Calm Calm - N/A   Clear
10:00 PM 39.2 °F 37.0 °F 37.4 °F 93% 29.80 in 6.2 mi ENE 3.5 mph - N/A   Mostly Cloudy
11:00 PM 42.8 °F 40.1 °F 41.0 °F 93% 29.77 in 6.2 mi East 4.6 mph - N/A   Mostly Cloudy